Latest Top 10% Owner Trading
SymbolCompany NameInsider NameTitleDateTransationSharePriceAmountFile Date
EHIWESTERN ASSET GLOBAL HIGH INCOME FUND INC.Saba Capital Management, L.P. 10% Owner2019-06-20Buy30,0009.91297,3002019-06-25 11:04:19
TPLTEXAS PACIFIC LAND TRUSTHORIZON KINETICS ASSET MANAGEMENT LLC 10% Owner2019-06-24Buy50782.1239,1062019-06-25 10:58:10
AKROAkero Therapeutics, Inc.venBio Global Strategic Fund II L.P. 10% Owner2019-06-24Buy250,00016.004,000,0002019-06-25 09:20:37
OCSLOaktree Specialty Lending CorpTANNENBAUM LEONARD M 10% Owner2019-06-21Sell70,2535.42380,7772019-06-25 08:15:18
WORKSlack Technologies, Inc.a16z Seed-III, LLC 10% Owner2019-06-20Sell3,000,00038.66115,976,2482019-06-24 21:49:23
WORKSlack Technologies, Inc.Andreessen Horowitz Fund I, L.P. 10% Owner2019-06-20Sell3,000,00038.66115,976,2482019-06-24 21:48:29
WORKSlack Technologies, Inc.AH Parallel Fund IV, L.P. 10% Owner2019-06-20Sell3,000,00038.66115,976,2482019-06-24 21:47:45
WORKSlack Technologies, Inc.Accel X LP 10% Owner2019-06-20Sell8,500,00038.77329,510,0162019-06-24 20:52:56
WORKSlack Technologies, Inc.Social Capital Holdings Inc. 10% Owner2019-06-20Sell1,017,06738.9939,653,0282019-06-24 20:34:11
WORKSlack Technologies, Inc.Social Capital Holdings Inc. 10% Owner2019-06-20Sell1,017,06738.9939,653,0282019-06-24 20:33:41
WORKSlack Technologies, Inc.Palihapitiya ChamathDirectior 10% Owner2019-06-20Sell1,017,06738.9939,653,0282019-06-24 20:30:34
ELVTElevate Credit, Inc.SCFF MANAGEMENT LLC 10% Owner2019-06-20Sell32,8004.39143,9222019-06-24 20:19:46
ELVTElevate Credit, Inc.SCGF III MANAGEMENT LLC 10% Owner2019-06-20Sell32,8004.39143,9222019-06-24 20:17:24
CSUCAPITAL SENIOR LIVING CORPLevinson Sam 10% Owner2019-06-20Buy242,1774.281,036,5182019-06-24 20:01:59
TRWHTwin River Worldwide Holdings, Inc.Chatham Asset Management, LLC 10% Owner2019-06-20Sell438,08530.5513,384,7722019-06-24 19:35:49
DLBDolby Laboratories, Inc.Dolby Dagmar 10% Owner2019-06-20Sell93,11365.116,063,0182019-06-24 19:35:23
LEGHLegacy Housing CorpShipley Douglas M 10% Owner2019-06-21Sell3,92512.8550,4362019-06-24 19:00:26
LEGHLegacy Housing CorpShipley William G 10% Owner2019-06-21Sell4,00012.8751,4802019-06-24 18:55:41
RUNSunrun Inc.TIGER GLOBAL MANAGEMENT LLC 10% Owner2019-06-20Buy1,016,34318.6218,926,3162019-06-24 18:54:51
BTNBALLANTYNE STRONG, INC.Fundamental Global Investors, LLCDirectior 10% Owner2019-06-20Buy5,2062.9915,5662019-06-24 18:52:24
LEGHLegacy Housing CorpShipley Kenneth EChief Executive Officer 10% Owner2019-06-21Sell4,00112.8651,4532019-06-24 18:44:41
MNTRMentor Capital, Inc.Billingsley ChesterChief Executive Officer 10% Owner2019-06-24Sell208,0000.3266,5602019-06-24 18:11:08
AGYSAGILYSYS INCBermuda One Fund LLC 10% Owner2019-06-20Sell21,70022.14480,3632019-06-24 17:15:19
FNKOFunko, Inc.Fundamental Capital Partners, LLC 10% Owner2019-06-20Sell229,56123.735,447,3402019-06-24 17:12:07
JILLJ.Jill, Inc.TowerBrook Investors, Ltd. 10% Owner2019-06-20Buy114,4511.65188,8652019-06-24 16:38:40
ACAssociated Capital Group, Inc.GABELLI MARIO JExecutive Chairman 10% Owner2019-06-21Buy3,03135.39107,2652019-06-24 16:29:09
WKWORKIVA INCTROM JEFF DExecutive VP & CTO 10% Owner2019-06-20Sell20,00057.901,158,0652019-06-24 16:20:40
DRRXDURECT CORPFirst Eagle Investment Management, LLC 10% Owner2019-06-20Buy4,000,0000.522,080,0002019-06-24 14:12:39
CCFCHASE CORPCHASE PETER RExecutive Chairman 10% Owner2019-06-20Sell400110.6144,2442019-06-24 14:12:36
CPHCCanterbury Park Holding CorpSCHENIAN DALE HDirectior 10% Owner2019-06-20Buy3,40012.9644,0642019-06-24 12:16:39
NVGNuveen AMT-Free Municipal Credit Income FundCITIGROUP INC 10% Owner2019-06-20Sell1,790100000.00179,000,0002019-06-24 12:07:33
TPLTEXAS PACIFIC LAND TRUSTHORIZON KINETICS ASSET MANAGEMENT LLC 10% Owner2019-06-21Buy50791.0739,5542019-06-24 11:49:12
MORNMorningstar, Inc.Mansueto Joseph DExecutive Chairman 10% Owner2019-06-20Sell18,565144.602,684,4672019-06-24 11:46:03
KBLMKBL MERGER CORP. IVOXFORD ASSET MANAGEMENT LLP 10% Owner2019-06-20Sell60010.486,2882019-06-24 10:58:10
RRTSRoadrunner Transportation Systems, Inc.ELLIOTT INTERNATIONAL, L.P. 10% Owner2019-06-20Buy5,8189.1052,9682019-06-24 08:35:27
SGMSSCIENTIFIC GAMES CORPPERELMAN RONALD ODirectior 10% Owner2019-06-20Buy75,00020.211,515,7502019-06-24 06:09:22
NAVBNAVIDEA BIOPHARMACEUTICALS, INC.Scott John K Jr. 10% Owner2019-06-18Buy4,000,0000.753,000,0002019-06-21 20:50:58
FSLYFastly, Inc.Abdiel Capital Management, LLC 10% Owner2019-06-03Buy250,00019.924,980,0002019-06-21 19:33:35
CNBKACENTURY BANCORP INCFiller James J 10% Owner2019-06-11Buy2,21385.70189,6542019-06-21 19:26:16
NGMNGM BIOPHARMACEUTICALS INCGOEDDEL DAVID VDirectior 10% Owner2019-06-19Buy34,37713.90477,8492019-06-21 18:08:00
NGMNGM BIOPHARMACEUTICALS INCSvennilson PeterDirectior 10% Owner2019-06-19Buy34,37713.90477,8492019-06-21 17:55:49
CHAPChaparral Energy, Inc.Strategic Value Partners, LLC 10% Owner2019-06-19Buy169,7383.62614,3392019-06-21 17:52:18
NGMNGM BIOPHARMACEUTICALS INCCOLUMN GROUP L P 10% Owner2019-06-19Buy34,37713.90477,8492019-06-21 17:41:31
SFIXStitch Fix, Inc.Cohler Matt 10% Owner2019-06-19Sell148,82031.284,654,7252019-06-21 17:34:08
CHKECHEROKEE INCCove Street Capital, LLC 10% Owner2019-06-19Sell70,2000.6243,4482019-06-21 17:25:34
SAFESafehold Inc.ISTAR INC. 10% Owner2019-06-19Buy14,82628.70425,4962019-06-21 17:20:08
STOKStoke Therapeutics, Inc.Harrison Seth LoringDirectior 10% Owner2019-06-21Buy1,388,88918.0025,000,0022019-06-21 17:01:27
SGMSSCIENTIFIC GAMES CORPPERELMAN RONALD ODirectior 10% Owner2019-06-19Option Exercise1,5550.0002019-06-21 17:00:54
IPARINTER PARFUMS INCMADAR JEANCEO 10% Owner2019-06-21Sell20,88467.451,408,6592019-06-21 17:00:09
STOKStoke Therapeutics, Inc.Apple Tree Partners IV, L.P. 10% Owner2019-06-21Buy1,388,88918.0025,000,0022019-06-21 16:59:31
EPEEP Energy CorpApollo Management Holdings GP, LLC 10% Owner2019-06-19Sell435,0000.0628,0262019-06-21 16:56:09
ATEAASTEA INTERNATIONAL INCKanen David 10% Owner2019-06-18Buy9005.454,9022019-06-21 16:43:02
JILLJ.Jill, Inc.TowerBrook Investors, Ltd. 10% Owner2019-06-19Buy62,5071.5898,8422019-06-21 16:27:51
RUNSunrun Inc.TIGER GLOBAL MANAGEMENT LLC 10% Owner2019-06-19Buy170,69617.823,041,8032019-06-21 16:27:07
LAZYLazydays Holdings, Inc.Coliseum Capital Management, LLCDirectior 10% Owner2019-06-19Buy100,0005.25525,0002019-06-21 16:15:18
NERVMinerva Neurosciences, Inc.Index Venture Associates III Ltd 10% Owner2019-06-19Sell110,8184.41488,9112019-06-21 16:12:41
IDTYIpsidy Inc.Beck Philip DCEO, Pres. and Chairman 10% Owner2019-06-19Buy625,0000.0850,0002019-06-21 16:06:55
TMCXTrinity Merger Corp.Polar Asset Management Partners Inc. 10% Owner2019-06-19Sell540,00010.325,572,8002019-06-21 16:04:40
ASDNAstro Aerospace Ltd.Bent BruceCEO, CFO 10% Owner2018-07-25Sell57,27011549.62661,446,9122019-06-21 15:41:53
ASDNAstro Aerospace Ltd.Bent BruceCEO, CFO 10% Owner2018-07-25Buy36,1988045.22291,220,7362019-06-21 15:41:53
FLWS1 800 FLOWERS COM INCMCCANN CHRISTOPHER GCEO and President 10% Owner2019-06-19Option Exercise25,0001.7944,7502019-06-21 12:37:46
FLWS1 800 FLOWERS COM INCMCCANN CHRISTOPHER GCEO and President 10% Owner2019-06-19Sell25,00019.97499,2502019-06-21 12:37:46
MYJBLACKROCK MUNIYIELD NEW JERSEY FUND, INC.CITIGROUP INC 10% Owner2019-06-19Sell1,800100000.00180,000,0002019-06-21 12:33:59
MYFBLACKROCK MUNIYIELD INVESTMENT FUNDCITIGROUP INC 10% Owner2019-06-19Sell594100000.0059,400,0002019-06-21 12:31:46
MCABLACKROCK MUNIYIELD CALIFORNIA QUALITY FUND, INC.CITIGROUP INC 10% Owner2019-06-19Sell1,665100000.00166,500,0002019-06-21 12:30:06
MYCBLACKROCK MUNIYIELD CALIFORNIA FUND, INC.CITIGROUP INC 10% Owner2019-06-19Sell1,059100000.00105,900,0002019-06-21 12:26:54
MZABLACKROCK MUNIYIELD ARIZONA FUND, INC.CITIGROUP INC 10% Owner2019-06-19Sell373100000.0037,300,0002019-06-21 12:25:18
MENBLACKROCK MUNIENHANCED FUND, INC.CITIGROUP INC 10% Owner2019-06-19Sell1,425100000.00142,500,0002019-06-21 12:23:03
MHEBLACKROCK MASSACHUSETTS TAX-EXEMPT TRUSTCITIGROUP INC 10% Owner2019-06-19Sell185100000.0018,500,0002019-06-21 12:21:15
MPABLACKROCK MUNIYIELD PENNSYLVANIA QUALITY FUNDCITIGROUP INC 10% Owner2019-06-19Sell826100000.0082,600,0002019-06-21 12:18:30
SPKESpark Energy, Inc.Maxwell W Keith IIIDirectior 10% Owner2019-06-19Buy2,85011.1331,7252019-06-21 12:05:53
TPLTEXAS PACIFIC LAND TRUSTHORIZON KINETICS ASSET MANAGEMENT LLC 10% Owner2019-06-20Buy50796.7239,8362019-06-21 11:07:39
FAXABERDEEN ASIA-PACIFIC INCOME FUND INCMASSACHUSETTS MUTUAL LIFE INSURANCE CO 10% Owner2019-06-19Buy18,000,0000.0002019-06-21 10:56:22
RVPRETRACTABLE TECHNOLOGIES INCSHAW THOMAS JPresident and CEO 10% Owner2019-06-20Buy1,5900.661,0532019-06-21 10:51:28
KKELLOGG COKELLOGG W K FOUNDATION TRUST 10% Owner2019-06-20Sell100,00054.955,494,6802019-06-21 10:35:21
OPKOpko Health, Inc.FROST PHILLIP MD ET ALCEO & Chairman 10% Owner2019-06-20Buy50,0002.04102,1272019-06-21 07:10:27
TWLOTWILIO INCLawson JeffChief Executive Officer 10% Owner2019-06-18Sell20,830143.132,981,2962019-06-20 21:00:26
ATNXAthenex, Inc.PERCEPTIVE ADVISORS LLC 10% Owner2019-06-18Buy50,74217.73899,6562019-06-20 20:00:39
RMBLRumbleON, Inc.Chesrown MarshallChairman and CEO 10% Owner2019-06-19Buy3,0004.1712,5102019-06-20 19:41:23
PHASPhaseBio Pharmaceuticals IncThorp ClayDirectior 10% Owner2019-06-18Sell40014.005,6002019-06-20 19:09:52
TPCTUTOR PERINI CORPRonald N. Tutor Separate Property Trust 10% Owner2019-06-18Sell50,00013.31665,5002019-06-20 18:42:44
TPCTUTOR PERINI CORPTUTOR RONALD NChairman & CEO 10% Owner2019-06-18Sell50,00013.31665,5002019-06-20 18:41:01
IPARINTER PARFUMS INCMADAR JEANCEO 10% Owner2019-06-18Sell52,80067.183,547,2182019-06-20 18:40:50
OCSLOaktree Specialty Lending CorpTANNENBAUM LEONARD M 10% Owner2019-06-19Sell59,3575.40320,7182019-06-20 18:26:23
LEGHLegacy Housing CorpHodgson Curtis DrewDirectior 10% Owner2019-06-19Sell100,00012.981,298,0002019-06-20 18:13:21
NICKNICHOLAS FINANCIAL INCPeterson Adam K 10% Owner2019-06-18Buy87,2319.01785,6292019-06-20 17:59:28
IVFHINNOVATIVE FOOD HOLDINGS INCJCP Investment Management, LLC 10% Owner2019-06-18Buy10,9500.535,8042019-06-20 17:34:15
VAMVivaldi Opportunities FundASHER DANIEL 10% Owner2019-02-19Sell2,88614.1540,8372019-06-20 17:04:52
TATTRANSATLANTIC PETROLEUM LTD.Mitchell Noah Malone IIIChief Executive Officer 10% Owner2019-06-18Option Exercise27,9610.0002019-06-20 17:01:36
JILLJ.Jill, Inc.TowerBrook Investors, Ltd. 10% Owner2019-06-18Buy120,7841.65199,3662019-06-20 16:30:44
ACAssociated Capital Group, Inc.GABELLI MARIO JExecutive Chairman 10% Owner2019-06-19Buy3,54435.60126,1712019-06-20 16:23:23
MCRBSeres Therapeutics, Inc.AFEYAN NOUBARDirectior 10% Owner2019-06-18Buy8,888,8882.2519,999,9982019-06-20 16:17:26
EXPIEXP World Holdings, Inc.Sanford Glenn DarrelCEO and Chairman of the Board 10% Owner2019-06-19Sell20,00011.11222,2002019-06-20 16:05:13
MORNMorningstar, Inc.Mansueto Joseph DExecutive Chairman 10% Owner2019-06-18Sell16,865144.372,434,7762019-06-20 12:44:20
HLIOHELIOS TECHNOLOGIES, INC.KOSKI ROBERT C 10% Owner2019-06-18Sell2,50045.59113,9762019-06-20 11:30:45
TPLTEXAS PACIFIC LAND TRUSTHORIZON KINETICS ASSET MANAGEMENT LLC 10% Owner2019-06-19Buy50755.8837,7942019-06-20 11:14:47
TIPTTIPTREE INC.Barnes Michael GeneExecutive Chairman 10% Owner2019-06-19Buy3,7006.4723,9412019-06-20 10:41:21
UGHLUNION BRIDGE HOLDINGS LTD.Ho ShanDirectior 10% Owner2019-06-10Sell74,0270.9771,6992019-06-20 10:29:14
UGHLUNION BRIDGE HOLDINGS LTD.HO MARY 10% Owner2019-06-10Sell229,8571.06243,3712019-06-20 10:28:15
VBIVVBI Vaccines Inc/BCPERCEPTIVE ADVISORS LLC 10% Owner2019-06-18Buy1,000,0000.65650,0002019-06-20 10:19:32
HIOWESTERN ASSET HIGH INCOME OPPORTUNITY FUND INC.Saba Capital Management, L.P. 10% Owner2019-06-18Buy130,3855.04657,1402019-06-20 10:05:58
EHIWESTERN ASSET GLOBAL HIGH INCOME FUND INC.Saba Capital Management, L.P. 10% Owner2019-06-18Buy39,7059.85390,8972019-06-20 10:02:03
STOKStoke Therapeutics, Inc.RTW INVESTMENTS, LP 10% Owner2019-06-19Buy555,55618.0010,000,0082019-06-20 09:50:17
CCFCHASE CORPCHASE PETER RExecutive Chairman 10% Owner2019-06-18Sell1,500110.64165,9652019-06-20 09:40:06
IMMRIMMERSION CORPSinger Eric 10% Owner2019-06-19Buy175,0007.571,325,0002019-06-20 09:00:15
RRTSRoadrunner Transportation Systems, Inc.ELLIOTT INTERNATIONAL, L.P. 10% Owner2019-06-18Buy5,7728.9551,6672019-06-20 08:35:16
OPKOpko Health, Inc.FROST PHILLIP MD ET ALCEO & Chairman 10% Owner2019-06-19Buy25,0002.0150,1342019-06-20 06:28:20
ELVTElevate Credit, Inc.SCFF MANAGEMENT LLC 10% Owner2019-06-17Sell37,5004.45166,8432019-06-19 21:17:09
ELVTElevate Credit, Inc.SCGF III MANAGEMENT LLC 10% Owner2019-06-17Sell37,5004.45166,8432019-06-19 21:16:34
ATNXAthenex, Inc.PERCEPTIVE ADVISORS LLC 10% Owner2019-06-17Buy130,00017.942,332,2002019-06-19 20:00:31
SFIXStitch Fix, Inc.Lake KatrinaChief Executive Officer 10% Owner2019-06-17Sell100,00030.413,041,3052019-06-19 20:00:18
BTNBALLANTYNE STRONG, INC.Fundamental Global Investors, LLCDirectior 10% Owner2019-06-17Buy12,7683.0538,8862019-06-19 19:38:51
PEDPEDEVCO CORPKUKES SIMON GChief Executive Officer 10% Owner2019-06-03Buy8,5442.0317,3462019-06-19 19:36:47
LAURLAUREATE EDUCATION, INC.Sterling Capital Partners II L PDirectior 10% Owner2019-06-17Sell701,81915.3010,740,0772019-06-19 19:26:14
LAURLAUREATE EDUCATION, INC.Taslitz StevenDirectior 10% Owner2019-06-17Sell701,81915.3010,740,0772019-06-19 19:25:43
LAURLAUREATE EDUCATION, INC.HOEHN SARIC RULDOLF CHRISTOPHERDirectior 10% Owner2019-06-17Sell701,81915.3010,740,0772019-06-19 19:25:28
LAURLAUREATE EDUCATION, INC.Wengen Alberta, LP 10% Owner2019-06-17Sell10,955,00015.30167,646,5602019-06-19 19:18:38
UROVUrovant Sciences Ltd.QVT Associates GP LLC 10% Owner2019-06-17Buy18,2048.32151,3812019-06-19 18:52:17
SGMSSCIENTIFIC GAMES CORPPERELMAN RONALD ODirectior 10% Owner2019-06-19Buy120,00020.292,434,8002019-06-19 18:33:59
UROVUrovant Sciences Ltd.SVF Investments (UK) Ltd 10% Owner2019-06-17Buy18,2048.32151,3812019-06-19 18:30:14
UROVUrovant Sciences Ltd.VIKING GLOBAL PERFORMANCE LLC 10% Owner2019-06-17Buy18,2048.32151,3812019-06-19 18:29:16
UROVUrovant Sciences Ltd.VIKING GLOBAL INVESTORS LP 10% Owner2019-06-17Buy18,2048.32151,3812019-06-19 18:28:16
UROVUrovant Sciences Ltd.Dexxon Holdings Ltd. 10% Owner2019-06-17Buy18,2048.32151,3812019-06-19 18:24:24
OTLKOutlook Therapeutics, Inc.BioLexis Pte Ltd.Directior 10% Owner2019-06-17Option Exercise2,181,8180.0002019-06-19 18:18:14
CBRLCRACKER BARREL OLD COUNTRY STORE, INCBIGLARI, SARDAR 10% Owner2019-06-17Sell98,939170.1116,830,3982019-06-19 17:39:16
SOLYSoliton, Inc.Remeditex Ventures LLC 10% Owner2019-06-19Buy357,1430.0002019-06-19 17:16:09
ETMENTERCOM COMMUNICATIONS CORPFIELD JOSEPH MChairman Emeritus 10% Owner2019-06-17Buy200,0005.981,195,5512019-06-19 17:10:28
SMARSMARTSHEET INCFREI BRENTDirectior 10% Owner2019-06-18Sell100,00050.035,002,9902019-06-19 17:10:24
VBFCVillage Bank & Trust Financial Corp.LEHMAN KENNETH R 10% Owner2019-04-25Buy1,57733.3552,5992019-06-19 17:06:36
CLROCLEARONE INCBAGLEY EDWARD D 10% Owner2019-06-17Buy1042.152242019-06-19 16:51:41
AMARAMARILLO BIOSCIENCES INCCHEN STEPHEN TPresident,Chairman,CEO,CFO 10% Owner2019-06-17Buy8,0000.342,6802019-06-19 16:50:06
VAMVivaldi Opportunities FundASHER DANIEL 10% Owner2019-06-18Sell20014.152,8302019-06-19 16:49:20
JILLJ.Jill, Inc.TowerBrook Investors, Ltd. 10% Owner2019-06-17Buy170,6821.70289,6822019-06-19 16:37:59
AGYSAGILYSYS INCBermuda One Fund LLC 10% Owner2019-06-17Sell29,20022.42654,7772019-06-19 16:30:19
NERVMinerva Neurosciences, Inc.Index Venture Associates III Ltd 10% Owner2019-06-17Sell105,9184.44470,7302019-06-19 16:10:41
PSECPROSPECT CAPITAL CORPBarry John FCHIEF EXECUTIVE OFFICER 10% Owner2019-06-17Buy137,8396.34874,4862019-06-19 16:03:50
FCNCAFIRST CITIZENS BANCSHARES INC /DE/Holding Olivia Britton 10% Owner2019-06-17Buy2,250375.00843,7502019-06-19 14:51:17
FCNCAFIRST CITIZENS BANCSHARES INC /DE/HOLDING FRANK B JRChairman and CEO 10% Owner2019-06-17Buy6,293375.002,359,8752019-06-19 14:46:01
ALRTALR TECHNOLOGIES INC.Chan SidneyCEO 10% Owner2019-06-19Option Exercise25,000,0000.0050,0002019-06-19 12:31:55
NCVAllianzGI Convertible & Income FundUBS Group AG 10% Owner2019-06-17Sell2925.207312019-06-19 11:24:18
NCZAllianzGI Convertible & Income Fund IIUBS Group AG 10% Owner2019-06-17Sell3324.888212019-06-19 11:21:23
TPLTEXAS PACIFIC LAND TRUSTHORIZON KINETICS ASSET MANAGEMENT LLC 10% Owner2019-06-18Buy50735.0936,7552019-06-19 11:18:14
TIPTTIPTREE INC.Barnes Michael GeneExecutive Chairman 10% Owner2019-06-17Buy18,0446.50117,3592019-06-19 10:28:05
OCSLOaktree Specialty Lending CorpTANNENBAUM LEONARD M 10% Owner2019-06-17Sell57,8345.45314,9342019-06-19 09:07:25
IMMRIMMERSION CORPSinger Eric 10% Owner2019-06-18Buy94,2927.60717,0152019-06-19 09:00:18
OPKOpko Health, Inc.FROST PHILLIP MD ET ALCEO & Chairman 10% Owner2019-06-18Buy50,0002.02100,9502019-06-19 06:08:48
ODTOdonate Therapeutics, Inc.TANG KEVIN CChief Executive Officer 10% Owner2019-06-14Buy50,00026.151,307,5462019-06-18 21:43:40
SMARSMARTSHEET INCMadrona Investment Partners III 10% Owner2019-06-14Sell5,175,00043.50225,112,4962019-06-18 20:53:51
SMARSMARTSHEET INCMcIlwain Matthew SDirectior 10% Owner2019-06-14Sell5,225,00043.54227,512,7042019-06-18 20:48:44
ROKUROKU, INCWood Anthony J.CEO and Chairman BOD 10% Owner2019-06-17Sell400,000103.3541,340,3362019-06-18 20:41:59
FITFITBIT INCFRIEDMAN ERIC N.CTO 10% Owner2019-06-15Option Exercise12,3540.0002019-06-18 20:39:24
FITFITBIT INCPARK JAMESPRESIDENT, CEO, COB 10% Owner2019-06-15Option Exercise41,8040.0002019-06-18 20:35:45
ATNXAthenex, Inc.PERCEPTIVE ADVISORS LLC 10% Owner2019-06-14Buy324,29017.695,736,6902019-06-18 20:00:25
SAFESafehold Inc.ISTAR INC. 10% Owner2019-06-14Buy15,00029.11436,6952019-06-18 19:59:35
CRWDCrowdStrike Holdings, Inc.Accel Growth Fund II L.P. 10% Owner2019-06-14Buy650,00034.0022,100,0002019-06-18 17:37:44
CRWDCrowdStrike Holdings, Inc.Accel Growth Fund II L.P. 10% Owner2019-06-14Buy650,00034.0022,100,0002019-06-18 17:36:11
CRWDCrowdStrike Holdings, Inc.GANDHI SAMEER KDirectior 10% Owner2019-06-14Buy650,00034.0022,100,0002019-06-18 17:28:02
BCRHBlue Capital Reinsurance Holdings Ltd.Sompo International Holdings Ltd. 10% Owner2019-06-15Option Exercise2,7636.8418,8992019-06-18 17:07:35
BANDBandwidth Inc.Kaestner Henry R. 10% Owner2019-06-14Sell10,00077.35773,5002019-06-18 17:03:36
COSMCosmos Holdings Inc.Siokas GrigoriosChief Executive Officer 10% Owner2019-06-18Sell30,0004.13123,9162019-06-18 16:47:38
ACAssociated Capital Group, Inc.GABELLI MARIO JExecutive Chairman 10% Owner2019-06-18Buy64235.7222,9312019-06-18 16:40:57
CHAPChaparral Energy, Inc.Strategic Value Partners, LLC 10% Owner2019-06-14Buy210,9003.14662,1532019-06-18 16:37:09
SHSPSharpSpring, Inc.Allen DanielDirectior 10% Owner2019-06-17Sell1,763,45412.2521,602,3122019-06-18 16:21:27
NATRNATURES SUNSHINE PRODUCTS INCWYNNEFIELD PARTNERS SMALL CAP VALUE LP 10% Owner2019-06-14Buy1009.109102019-06-18 16:18:30
NONETCG BDC II, Inc.NATIONAL COMMERCIAL BANK 10% Owner2019-06-14Buy505,29220.6010,409,0152019-06-18 16:09:07
PSECPROSPECT CAPITAL CORPBarry John FCHIEF EXECUTIVE OFFICER 10% Owner2019-06-14Buy233,4826.321,474,4392019-06-18 16:01:31
CSUCAPITAL SENIOR LIVING CORPLevinson Sam 10% Owner2019-06-14Buy7,8334.3033,6822019-06-18 16:01:24
MORNMorningstar, Inc.Mansueto Joseph DExecutive Chairman 10% Owner2019-06-17Sell10,647145.011,543,8742019-06-18 14:57:09
HLIOHELIOS TECHNOLOGIES, INC.KOSKI CHRISTINE LDirectior 10% Owner2019-06-14Sell25,70045.941,180,6972019-06-18 14:26:40
GIIIG III APPAREL GROUP LTD /DE/GOLDFARB MORRISCEO 10% Owner2019-06-13Buy40,47925.391,027,7622019-06-18 14:05:27
CRWDCrowdStrike Holdings, Inc.CapitalG LP 10% Owner2019-06-14Buy140,00034.004,760,0002019-06-18 13:58:47
VERIVeritone, Inc.Steelberg ChadCEO, Chairman of the Board 10% Owner2019-06-14Buy13,3007.54100,3262019-06-18 12:35:22
RVPRETRACTABLE TECHNOLOGIES INCSHAW THOMAS JPresident and CEO 10% Owner2019-06-14Buy1,5000.669922019-06-18 12:15:34
TPLTEXAS PACIFIC LAND TRUSTHORIZON KINETICS ASSET MANAGEMENT LLC 10% Owner2019-06-17Buy50718.9635,9482019-06-18 12:09:50
VBIVVBI Vaccines Inc/BCPERCEPTIVE ADVISORS LLC 10% Owner2019-06-17Buy1,000,0000.62618,0002019-06-18 11:10:01
SWCHSwitch, Inc.Balelo William Gonsalves 10% Owner2019-06-13Sell27,27612.97353,7252019-06-18 11:00:22
MDCMDC HOLDINGS INCMIZEL LARRY AChairman of the Board and CEO 10% Owner2019-06-17Option Exercise20,22425.29511,4652019-06-18 10:55:11
MDCMDC HOLDINGS INCMIZEL LARRY AChairman of the Board and CEO 10% Owner2019-06-17Sell20,22433.48677,1002019-06-18 10:55:11
KBLMKBL MERGER CORP. IVOXFORD ASSET MANAGEMENT LLP 10% Owner2019-06-14Sell30010.483,1442019-06-18 08:38:16
SGMSSCIENTIFIC GAMES CORPPERELMAN RONALD ODirectior 10% Owner2019-06-17Buy110,00019.732,170,3002019-06-17 21:17:04
SGMSSCIENTIFIC GAMES CORPPERELMAN RONALD ODirectior 10% Owner2019-06-13Option Exercise5,0340.0002019-06-17 21:11:52
JMDAJerrick Media Holdings, Inc.Rosen Arthur 10% Owner2019-06-12Buy50,0000.147,0002019-06-17 21:00:42
ATNXAthenex, Inc.PERCEPTIVE ADVISORS LLC 10% Owner2019-06-13Buy75,71017.051,290,8562019-06-17 20:00:28
LAZYLazydays Holdings, Inc.Coliseum Capital Management, LLCDirectior 10% Owner2019-06-13Buy17,2074.9384,8232019-06-17 19:22:09
BTNBALLANTYNE STRONG, INC.Fundamental Global Investors, LLCDirectior 10% Owner2019-06-13Buy10,8843.0132,7952019-06-17 19:13:58
WDAYWorkday, Inc.DUFFIELD DAVID ADirectior 10% Owner2019-06-13Sell175,000208.2836,449,7242019-06-17 19:13:54
WHFWhiteHorse Finance, Inc.MNAYMNEH SAMI 10% Owner2019-06-14Sell2,350,00014.0032,900,0002019-06-17 19:11:30
WHFWhiteHorse Finance, Inc.TAMER ANTHONY 10% Owner2019-06-14Sell2,350,00014.0032,900,0002019-06-17 19:09:26
OCSLOaktree Specialty Lending CorpTANNENBAUM LEONARD M 10% Owner2019-06-13Sell98,0325.43531,9282019-06-17 18:04:54
RRTSRoadrunner Transportation Systems, Inc.ELLIOTT INTERNATIONAL, L.P. 10% Owner2019-06-13Buy8,3218.2068,2232019-06-17 18:02:24
BHBiglari Holdings Inc.BIGLARI, SARDARChairman and CEO 10% Owner2019-06-14Buy4,868153.15745,5512019-06-17 17:45:46
CODACoda Octopus Group, Inc.van Vlissingen FH Fentener Drs. 10% Owner2019-06-14Sell110,00014.261,568,6002019-06-17 17:05:48
IPARINTER PARFUMS INCMADAR JEANCEO 10% Owner2019-06-13Sell4,52367.05303,2672019-06-17 16:59:14
NWPPNEW PEOPLES BANKSHARES INCWHITE B SCOTTDirectior 10% Owner2019-06-13Buy2,2452.004,4902019-06-17 16:59:10
NXGNNEXTGEN HEALTHCARE, INC.RAZIN SHELDONDirectior 10% Owner2019-06-14Sell21,90019.07417,6332019-06-17 16:51:14
CCFCHASE CORPCHASE PETER RExecutive Chairman 10% Owner2019-06-14Sell500109.0954,5452019-06-17 16:50:30
INFUInfuSystem Holdings, IncShuda ScottDirector 10% Owner2019-06-14Buy4,7234.5121,3212019-06-17 16:44:52
tzooTRAVELZOOAZZURRO CAPITAL INC 10% Owner2019-06-13Sell56,00016.85943,3902019-06-17 16:42:25
SCPLSciPlay CorpPark West Asset Management LLC 10% Owner2019-06-13Buy329,70913.384,413,0292019-06-17 16:30:21
NERVMinerva Neurosciences, Inc.Index Venture Associates III Ltd 10% Owner2019-06-13Sell78,4674.51353,7372019-06-17 16:26:18